When you browse on this site, cookies collect data to enhance your experience and personalize the content and advertising you see.
Visit our Privacy Policy to learn more. By continuing to use the site, you agree to this use of cookies and data.
  • In Schweiz
  • Länderverzeichnis
  • Für 7 Tage
  • Wassertemperatur
  • Wetterkarte
  • Widgets
  • user-avatar
    Anmelden

    Stündliche Wetter Sylchet

    Heute, 20 Februar, Donnerstag

    Zeit Temperatur Niederschläge Wind Luftdruck Luftfeuchtigkeit
    00:00 +20°C° 0 mm 1 m/S 761 mmHg 58%
    01:00 +19°C° 0 mm 1 m/S 761 mmHg 60%
    02:00 +19°C° 0 mm 1 m/S 760 mmHg 61%
    03:00 +19°C° 0 mm 1 m/S 760 mmHg 62%
    04:00 +18°C° 0 mm 1 m/S 761 mmHg 64%
    05:00 +18°C° 0 mm 1 m/S 761 mmHg 65%
    06:00 +15°C° 0 mm 0 m/S 761 mmHg 75%
    07:00 +20°C° 0 mm 1 m/S 761 mmHg 68%
    08:00 +22°C° 0 mm 1 m/S 762 mmHg 60%
    09:00 +24°C° 0 mm 1 m/S 762 mmHg 53%
    10:00 +27°C° 0 mm 1 m/S 762 mmHg 48%
    11:00 +29°C° 0 mm 1 m/S 761 mmHg 42%
    12:00 +29°C° 0 mm 0 m/S 761 mmHg 36%
    13:00 +31°C° 0 mm 1 m/S 761 mmHg 34%
    14:00 +31°C° 0 mm 1 m/S 760 mmHg 32%
    15:00 +31°C° 0 mm 2 m/S 759 mmHg 31%
    16:00 +29°C° 0 mm 2 m/S 759 mmHg 36%
    17:00 +27°C° 0 mm 2 m/S 759 mmHg 41%
    18:00 +25°C° 0 mm 2 m/S 760 mmHg 47%
    19:00 +24°C° 0 mm 1 m/S 760 mmHg 48%
    20:00 +23°C° 0 mm 1 m/S 761 mmHg 49%
    21:00 +22°C° 0 mm 1 m/S 761 mmHg 50%
    22:00 +22°C° 0 mm 1 m/S 761 mmHg 51%
    23:00 +21°C° 0 mm 1 m/S 761 mmHg 53%

    Morgen, 21 Februar, Freitag

    Zeit Temperatur Niederschläge Wind Luftdruck Luftfeuchtigkeit
    00:00 +20°C° 0 mm 1 m/S 761 mmHg 55%
    01:00 +20°C° 0 mm 1 m/S 761 mmHg 58%
    02:00 +19°C° 0 mm 1 m/S 761 mmHg 61%
    03:00 +19°C° 0 mm 1 m/S 761 mmHg 64%
    04:00 +18°C° 0 mm 1 m/S 761 mmHg 66%
    05:00 +17°C° 0 mm 2 m/S 761 mmHg 68%
    06:00 +17°C° 0 mm 2 m/S 761 mmHg 70%
    07:00 +19°C° 0 mm 2 m/S 762 mmHg 64%
    08:00 +23°C° 0 mm 2 m/S 762 mmHg 59%
    09:00 +25°C° 0 mm 2 m/S 763 mmHg 53%
    10:00 +27°C° 0 mm 2 m/S 763 mmHg 47%
    11:00 +29°C° 0 mm 2 m/S 762 mmHg 40%
    12:00 +32°C° 0 mm 1 m/S 762 mmHg 34%
    19:00 +25°C° 0 mm 1 m/S 761 mmHg 41%
    20:00 +24°C° 0 mm 1 m/S 761 mmHg 44%
    21:00 +23°C° 0 mm 2 m/S 762 mmHg 47%
    22:00 +22°C° 0 mm 1 m/S 762 mmHg 49%
    23:00 +21°C° 0 mm 1 m/S 762 mmHg 51%

    übermorgen, 22 Februar, Samstag

    Zeit Temperatur Niederschläge Wind Luftdruck Luftfeuchtigkeit
    00:00 +21°C° 0 mm 1 m/S 762 mmHg 54%
    01:00 +20°C° 0 mm 1 m/S 762 mmHg 56%
    02:00 +20°C° 0 mm 1 m/S 762 mmHg 58%
    03:00 +19°C° 0 mm 1 m/S 761 mmHg 61%
    04:00 +19°C° 0 mm 1 m/S 761 mmHg 61%
    05:00 +19°C° 0 mm 1 m/S 761 mmHg 62%
    06:00 +18°C° 0 mm 2 m/S 761 mmHg 62%
    07:00 +20°C° 0 mm 2 m/S 762 mmHg 57%
    08:00 +23°C° 0 mm 2 m/S 762 mmHg 52%
    09:00 +25°C° 0 mm 2 m/S 763 mmHg 47%
    10:00 +28°C° 0 mm 2 m/S 762 mmHg 42%
    11:00 +31°C° 0 mm 1 m/S 762 mmHg 36%
    12:00 +33°C° 0 mm 1 m/S 761 mmHg 31%
    13:00 +34°C° 0 mm 1 m/S 760 mmHg 29%
    14:00 +34°C° 0 mm 1 m/S 759 mmHg 26%
    15:00 +34°C° 0 mm 1 m/S 759 mmHg 23%
    16:00 +32°C° 0 mm 1 m/S 759 mmHg 28%
    17:00 +30°C° 0 mm 2 m/S 759 mmHg 34%
    18:00 +27°C° 0 mm 2 m/S 759 mmHg 39%
    19:00 +26°C° 0 mm 2 m/S 760 mmHg 40%
    20:00 +25°C° 0 mm 2 m/S 760 mmHg 41%
    21:00 +24°C° 0 mm 1 m/S 761 mmHg 41%
    22:00 +24°C° 0 mm 1 m/S 761 mmHg 43%
    23:00 +23°C° 0 mm 1 m/S 761 mmHg 44%

    23 Februar, Sonntag

    Zeit Temperatur Niederschläge Wind Luftdruck Luftfeuchtigkeit
    00:00 +22°C° 0 mm 1 m/S 761 mmHg 46%
    01:00 +22°C° 0 mm 1 m/S 761 mmHg 48%
    02:00 +21°C° 0 mm 1 m/S 761 mmHg 50%
    03:00 +20°C° 0 mm 1 m/S 760 mmHg 52%
    04:00 +20°C° 0 mm 1 m/S 760 mmHg 53%
    05:00 +19°C° 0 mm 1 m/S 760 mmHg 54%
    06:00 +19°C° 0 mm 1 m/S 760 mmHg 55%
    07:00 +21°C° 0 mm 1 m/S 761 mmHg 51%
    08:00 +23°C° 0 mm 1 m/S 761 mmHg 46%
    09:00 +26°C° 0 mm 1 m/S 762 mmHg 42%
    10:00 +28°C° 0 mm 1 m/S 761 mmHg 38%
    11:00 +31°C° 0 mm 1 m/S 761 mmHg 33%
    12:00 +31°C° 0 mm 0 m/S 760 mmHg 29%
    13:00 +33°C° 0 mm 1 m/S 760 mmHg 29%
    14:00 +34°C° 0 mm 2 m/S 759 mmHg 28%
    15:00 +34°C° 0 mm 2 m/S 758 mmHg 28%
    16:00 +31°C° 0 mm 2 m/S 758 mmHg 32%
    17:00 +29°C° 0 mm 2 m/S 758 mmHg 37%
    18:00 +27°C° 0 mm 1 m/S 758 mmHg 42%
    19:00 +26°C° 0 mm 1 m/S 758 mmHg 44%
    20:00 +25°C° 0 mm 1 m/S 759 mmHg 46%
    21:00 +24°C° 0 mm 1 m/S 759 mmHg 47%
    22:00 +24°C° 0 mm 1 m/S 759 mmHg 50%
    23:00 +23°C° 0 mm 1 m/S 759 mmHg 52%

    24 Februar, Montag

    Zeit Temperatur Niederschläge Wind Luftdruck Luftfeuchtigkeit
    00:00 +22°C° 0 mm 1 m/S 759 mmHg 55%
    01:00 +22°C° 0 mm 1 m/S 759 mmHg 56%
    02:00 +21°C° 0 mm 1 m/S 759 mmHg 58%
    03:00 +21°C° 0 mm 1 m/S 758 mmHg 59%
    04:00 +20°C° 0 mm 1 m/S 758 mmHg 60%
    05:00 +20°C° 0 mm 1 m/S 759 mmHg 61%
    06:00 +19°C° 0 mm 1 m/S 759 mmHg 63%
    07:00 +22°C° 0 mm 1 m/S 759 mmHg 57%
    08:00 +24°C° 0 mm 1 m/S 760 mmHg 51%
    09:00 +24°C° 0 mm 0 m/S 760 mmHg 45%
    10:00 +27°C° 0 mm 0 m/S 760 mmHg 40%
    11:00 +29°C° 0 mm 0 m/S 759 mmHg 36%
    12:00 +32°C° 0 mm 0 m/S 759 mmHg 31%
    13:00 +34°C° 0 mm 1 m/S 758 mmHg 30%
    14:00 +34°C° 0 mm 1 m/S 757 mmHg 28%
    15:00 +35°C° 0 mm 2 m/S 757 mmHg 27%
    16:00 +32°C° 0 mm 2 m/S 757 mmHg 32%
    17:00 +30°C° 0 mm 2 m/S 757 mmHg 37%
    18:00 +28°C° 0 mm 2 m/S 757 mmHg 42%
    19:00 +27°C° 0 mm 2 m/S 757 mmHg 44%
    20:00 +27°C° 0 mm 3 m/S 758 mmHg 45%
    21:00 +26°C° 0 mm 3 m/S 759 mmHg 46%
    22:00 +25°C° 0 mm 3 m/S 758 mmHg 48%
    23:00 +24°C° 0 mm 2 m/S 758 mmHg 49%

    25 Februar, Dienstag

    Zeit Temperatur Niederschläge Wind Luftdruck Luftfeuchtigkeit
    00:00 +24°C° 0 mm 1 m/S 758 mmHg 51%
    01:00 +23°C° 0 mm 1 m/S 758 mmHg 53%
    02:00 +22°C° 0 mm 1 m/S 758 mmHg 56%
    03:00 +21°C° 0 mm 1 m/S 757 mmHg 59%
    04:00 +21°C° 0 mm 1 m/S 757 mmHg 60%
    05:00 +21°C° 0 mm 1 m/S 757 mmHg 61%
    06:00 +20°C° 0 mm 1 m/S 758 mmHg 62%
    07:00 +23°C° 0 mm 1 m/S 758 mmHg 57%
    08:00 +25°C° 0 mm 1 m/S 758 mmHg 51%
    09:00 +25°C° 0 mm 0 m/S 759 mmHg 45%
    10:00 +28°C° 0 mm 0 m/S 758 mmHg 40%
    11:00 +30°C° 0 mm 0 m/S 758 mmHg 35%
    12:00 +32°C° 0 mm 0 m/S 757 mmHg 30%
    13:00 +34°C° 0 mm 1 m/S 757 mmHg 29%
    14:00 +34°C° 0 mm 1 m/S 756 mmHg 28%
    15:00 +35°C° 0 mm 2 m/S 755 mmHg 27%
    16:00 +32°C° 0 mm 2 m/S 756 mmHg 33%
    17:00 +30°C° 0 mm 3 m/S 756 mmHg 38%
    18:00 +28°C° 0 mm 3 m/S 756 mmHg 43%
    19:00 +27°C° 0 mm 3 m/S 757 mmHg 47%
    20:00 +26°C° 0 mm 4 m/S 758 mmHg 50%
    21:00 +26°C° 0 mm 4 m/S 758 mmHg 54%
    22:00 +25°C° 0.2 mm 3 m/S 759 mmHg 60%
    23:00 +24°C° 0.2 mm 3 m/S 759 mmHg 66%
    Mehr zeigen